Regional Weather Roundup
Issued by NWS Midland/Odessa, TX

Home | Current Version | Previous Version | Text Only | Print | Product List | Glossary On
Versions: 1 2 3 4 5 6 7 8 9 10 11 12 13 14 15 16 17 18 19 20 21 22 23 24 25 26 27 28 29 30 31 32 33 34 35 36 37 38 39 40 41 42 43 44 45 46 47 48 49 50
000
ASUS44 KMAF 091910
RWRMAF
MIDLAND AREA WEATHER ROUNDUP
NATIONAL WEATHER SERVICE MIDLAND TX
100 PM CST FRI DEC 09 2016

...IN SOUTHWEST TEXAS AND SOUTHEAST NEW MEXICO...

CITY           SKY/WX    TMP DP  RH WIND       PRES   REMARKS
ALPINE         CLOUDY    41  35  78 SW20      30.43F WCI  32
ANDREWS        CLOUDY    35  27  71 S8        30.40F WCI  29
ARTESIA        CLOUDY    32  32 100 E7        30.37F WCI  26
BIG SPRING     CLOUDY    37  26  62 S6        30.46F WCI  33
CARLSBAD       CLOUDY    34  31  88 S9        30.37F WCI  27
DRYDEN           N/A     38  29  70 S8        30.46F WCI  32
FORT STOCKTON  CLOUDY    46  36  68 CALM      30.39F
GUAD PASS      NOT AVBL
HOBBS          CLOUDY    32  32 100 S10       30.38F WCI  24
MARFA          CLOUDY    39  33  79 S8        30.40F WCI  33
MIDLAND AIRPK  CLOUDY    38  25  60 S7        30.43F WCI  32
MIDLAND INTL   CLOUDY    37  24  59 S7        30.42F WCI  32
ODESSA         CLOUDY    37  25  61 S8        30.41F WCI  31
PECOS          CLOUDY    40  32  71 SE6       30.42F WCI  36
PRESIDIO       CLOUDY    43  31  62 CALM      30.44F
SEMINOLE       CLOUDY    35  28  75 SW10      30.39F WCI  27
SNYDER         CLOUDY    32  23  69 S10       30.44F WCI  24
WINK           CLOUDY    38  29  70 SE7       30.40F WCI  33
$$
...OTHER STATIONS IN TEXAS...

CITY           SKY/WX    TMP DP  RH WIND       PRES   REMARKS
ABILENE        CLOUDY    35  18  49 S8        30.50F WCI  29
AMARILLO       CLOUDY    36  26  67 S21       30.26F WCI  25
AUSTIN         CLOUDY    46  22  38 N8        30.56F
BROWNSVILLE    CLOUDY    44  33  65 NW16G25   30.49F WCI  37
CORPUS CHRISTI CLOUDY    45  29  53 N12       30.54F WCI  39
DALLAS FTW     CLOUDY    36  12  37 CALM      30.57F
DEL RIO        CLOUDY    41  26  55 CALM      30.54F
EL PASO        CLOUDY    38  28  67 E5        30.40F WCI  34
HOUSTON INT    MOSUNNY   48  22  35 NE8       30.54F
LUBBOCK        CLOUDY    35  24  64 S17       30.35F WCI  25
SAN ANGELO     CLOUDY    44  22  41 VRB6      30.49F
SAN ANTONIO    CLOUDY    43  19  38 N9        30.55F WCI  38
WACO           SUNNY     42  18  37 N5        30.58F WCI  39
WICHITA FALLS  NOT AVBL
$$
...OTHER LOCATIONS IN NEW MEXICO...

CITY           SKY/WX    TMP DP  RH WIND       PRES   REMARKS
ALAMAGORDO     NOT AVBL
ALBUQUERQUE    PTSUNNY   38  26  62 SW8       30.34F WCI  32
CANNON AFB     SUNNY     39  31  72 SW18      30.24F WCI  29
CLOVIS         SUNNY     37  27  65 SW17      30.26F WCI  28
HOLLOMAN AFB   SUNNY     38  27  64 CALM      30.43F
ROSWELL        CLOUDY    31  27  85 S8        30.35F WCI  23
RUIDOSO        SUNNY     54  25  32 NE6       30.32F
SANTA FE       SUNNY     40  24  53 W8        30.29F WCI  34
TRUTH OR CONSE SUNNY     41  27  57 S8        30.35F WCI  36
TUCUMCARI      SUNNY     50  29  44 SW16      30.17F
$$




USA.gov is the U.S. government's official web portal to all federal, state and local government web resources and services.